User: anonymous   Login
Location: Unspecified
(0.0000°N, 0.0000°E)
Time: 23:22:53
(UTC+00:00)
Language:

STARLINK-35189 - Orbit

View from above orbital plane
View from above orbital plane
View from above satellite
View from above satellite

Ground track
Ground track

The orbit is defined by the following mean orbital elements,

1 65676U          26145.28305709 +.00000000 +00000-0 +55690-3 0 00003
2 65676  53.1612 349.6696 0001337  86.4193 273.6961 15.30211923    09
Epoch (UTC): 25 May 2026 06:47:36
Eccentricity: 0.0001337
inclination: 53.1612°
perigee height: 474 km
apogee height: 476 km
right ascension of ascending node: 349.6696°
argument of perigee: 86.4193°
revolutions per day: 15.30211923
mean anomaly at epoch: 273.6961°

The dashed part of the orbit path shows where the satellite is in the earth's shadow,  

DLR